Regional Weather Roundup
Issued by NWS

Home | Current Version | Previous Version | Text Only | Print | Product List | Glossary On
Versions: 1 2 3 4 5 6 7 8 9 10 11 12 13 14 15 16 17 18 19 20 21 22 23 24 25 26 27 28 29 30 31 32 33 34 35 36 37 38 39 40 41 42 43 44 45 46 47 48 49 50
181
ASUS44 KOUN 240910
RWROK

WEATHER ROUNDUP FOR OKLAHOMA
NATIONAL WEATHER SERVICE NORMAN OK
400 AM CDT SAT JUN 24 2017

NOTE: "FAIR" INDICATES FEW OR NO CLOUDS BELOW 12,000 FEET WITH NO
      SIGNIFICANT WEATHER AND/OR OBSTRUCTIONS TO VISIBILITY.

OKZ001>007-009>012-014-015-017-241000-
NORTHWEST OKLAHOMA AND THE PANHANDLE

CITY           SKY/WX    TMP DP  RH WIND       PRES   REMARKS
GAGE           CLOUDY    64  50  60 N6        30.16F
GUYMON         CLOUDY    63  56  78 N3        30.22S
ENID/WOODRING  CLOUDY    64  59  82 N7        30.10S
$$

OKZ016-021>023-033>039-044-045-241000-
SOUTHWEST OKLAHOMA

CITY           SKY/WX    TMP DP  RH WIND       PRES   REMARKS
LAWTON/REGL    CLOUDY    67  65  93 CALM      30.10R
LAWTON/FT SILL TSTM      66  64  94 N7        30.09R
FREDERICK      TSTM      67  65  93 N22G32    30.06R
CLINTON        CLOUDY    67  55  65 N8        30.14R
HOBART         LGT RAIN  66  62  87 W10       30.13R
ALTUS AFB      LGT RAIN  64  59  82 N14       30.11F
$$

OKZ018>020-024>031-241000-
CENTRAL OKLAHOMA

CITY           SKY/WX    TMP DP  RH WIND       PRES   REMARKS
OKLAHOMA CITY  CLOUDY    72  52  49 NE15      30.10R
OKC/WILEY POST CLOUDY    71  54  54 NE7       30.10R
OKC/TINKER AFB MOCLDY    70  54  57 NE9       30.08R
STILLWATER     MOCLDY    67  54  63 N7        30.09S
GUTHRIE        MOCLDY    69  54  58 NE6       30.09R
$$

OKZ008-013-054>072-241000-
NORTHEAST OKLAHOMA

CITY           SKY/WX    TMP DP  RH WIND       PRES   REMARKS
TULSA          CLOUDY    70  56  61 VRB5      30.07R
TULSA/JONES    PTCLDY    71  54  54 NE7       30.08R
PONCA CITY     CLOUDY    66  55  67 N5        30.11R
BARTLESVILLE   PTCLDY    66  54  65 N5        30.11S
MUSKOGEE       CLEAR     69  58  67 NE10      30.07R
$$

OKZ032-040>043-046>053-073>077-241000-
SOUTH CENTRAL/SOUTHEAST OKLAHOMA

CITY           SKY/WX    TMP DP  RH WIND       PRES   REMARKS
ARDMORE/DWNTWN CLOUDY    73  61  64 E12G17    30.00R
MCALESTER      CLOUDY    73  68  84 NE5       30.05R
$$





USA.gov is the U.S. government's official web portal to all federal, state and local government web resources and services.